SCP
0 0 0 0 0 0 0 0 0 0 0 0 0 0 0 0 0 0 0 -0 -0 -0 -0 -0 -0 -0 0 0 0 0 0 0 -0 -0 -0 -0 -0 0
0 0 0 0 0 0 0 -0 0 0 0 0 0 0 0 0 0 0 0 -0 -0 -0 -0 -0 -0 0 0 0 0 0 0 0 -0 -0 -0 -0 -0 0
-0 0 0 0 0 0 0 0 0 0 0 0 0 0 0 0 0 0 0 0 0 -0 -0 -0 -0 0 0 0 0 0 -0 0 -0 -0 -0 -0 0 0
-0 -0 0 0 0 0 0 0 0 0 0 0 0 0 0 0 0 0 0 0 -0 -0 -0 0 0 0 0 -0 0 0 0 -0 -0 -0 -0 0 0 0
0 -0 -0 -0 -0 -0 0 0 0 0 0 0 0 0 0 0 0 0 0 -0 0 0 0 0 0 0 -0 0 0 -0 -0 -0 -0 -0 0 0 0 0
0 0 -0 0 0 -0 0 0 0 0 0 0 0 0 0 0 0 0 0 0 0 0 0 0 0 -0 -0 0 0 -0 -0 -0 -0 0 0 0 0 0
0 0 -0 0 0 0 0 0 0 0 0 0 0 0 0 0 0 0 0 0 0 0 0 0 0 0 0 -0 -0 -0 -0 -0 -0 0 0 0 0 0
0 0 0 0 0 0 0 0 0 0 0 0 0 0 0 0 0 0 0 -0 0 0 0 0 0 0 0 0 -0 -0 -0 0 0 0 0 0 0 0
-0 0 0 0 0 0 0 0 0 0 0 0 0 0 0 0 0 0 0 -0 -0 -0 0 0 0 0 0 -0 -0 -0 0 0 0 0 0 0 0 0
0 0 0 0 0 0 0 0 0 0 0 0 0 0 0 0 0 0 -0 -0 -0 -0 0 0 0 0 0 0 0 0 0 0 0 0 0 0 0 0
0 0 0 0 0 0 0 0 0 0 0 0 0 -0 -0 -0 -0 -0 -0 0 -0 -0 0 -0 0 0 0 0 0 0 0 0 0 0 0 0 0 0
0 0 0 0 0 0 0 0 0 0 0 0 0 -0 -0 -0 -0 0 0 0 -0 -0 -0 0 0 0 0 0 0 0 0 0 0 0 0 0 0 0
0 0 -0 0 0 0 0 0 0 0 0 -0 -0 -0 -0 0 0 0 0 0 -0 -0 0 -0 0 0 0 0 0 0 0 0 0 0 0 0 0 0
0 -0 -0 0 -0 0 0 0 0 0 0 -0 -0 -0 -0 -0 0 0 -0 0 0 -0 -0 0 0 0 0 0 0 0 0 0 0 0 0 0 0 0
-0 -0 -0 -0 0 0 -0 -0 0 0 -0 -0 -0 -0 -0 -0 -0 -0 -0 -0 -0 -0 -0 0 0 0 0 0 0 0 0 0 0 0 0 0 0 0
-0 -0 -0 -0 0 0 0 -0 0 0 -0 -0 -0 -0 -0 -0 -0 -0 -0 -0 -0 0 0 0 0 0 0 0 0 0 0 0 0 0 0 0 0 0
0 0 0 0 0 -0 -0 -0 -0 -0 -0 -0 -0 -0 -0 -0 -0 0 0 0 0 0 0 0 0 0 0 0 0 0 0 0 0 0 0 0 0 0
0 0 -0 -0 -0 -0 -0 -0 -0 -0 0 0 -0 -0 -0 -0 -0 -0 0 0 0 0 0 0 0 0 0 0 0 0 0 0 0 0 0 0 0 0
0 -0 -0 -0 -0 -0 -0 -0 -0 -0 -0 -0 0 -0 -0 -0 -0 -0 -0 0 0 0 0 0 0 0 0 0 0 0 0 0 0 0 0 0 0 0
-0 -0 -0 -0 -0 -0 -0 -0 -0 -0 0 0 -0 -0 -0 -0 -0 -0 -0 0 0 0 0 0 0 0 0 0 0 0 0 0 0 0 0 0 0 0
-0 -0 0 0 0 -0 -0 0 0 0 -0 -0 -0 -0 -0 -0 -0 -0 -0 -0 0 0 0 0 0 0 0 0 0 0 0 0 0 0 0 0 0 0
0 0 0 0 -0 -0 -0 -0 -0 -0 -0 -0 -0 -0 -0 -0 -0 0 0 0 0 0 0 0 0 0 0 0 0 0 0 0 0 0 0 0 0 0
-0 -0 0 0 -0 0 -0 -0 -0 -0 -0 0 0 0 0 0 0 0 0 0 0 0 0 0 0 0 0 0 0 0 0 0 0 0 0 0 0 0
Wind_Speed_500mb
4 11 15 22 21 23 27 39 41 33 30 29 23 21 38 46 52 53 55 59 58 73 81 73 74 64 51 48 39 31 27 22 18 14 8 4 4 7
7 10 12 16 21 23 28 37 42 41 33 39 36 36 36 63 58 59 71 74 85 80 76 69 62 55 48 39 35 31 21 23 14 11 11 9 12 14
6 4 9 10 14 16 19 25 42 36 39 44 38 36 57 81 82 75 83 86 85 81 72 64 62 55 48 41 34 26 26 21 15 12 11 14 16 17
7 8 12 14 11 12 22 37 32 40 44 54 48 45 46 63 87 98 92 92 83 70 61 55 49 42 36 27 27 31 23 16 12 11 15 14 10 10
7 11 15 19 19 21 25 30 35 39 31 54 66 65 80 93 95 93 92 81 73 68 57 47 40 35 35 31 25 19 15 12 11 12 9 9 9 10
11 17 23 21 18 23 35 41 36 46 67 84 96 97 104 106 103 94 79 77 69 58 48 47 44 35 28 23 20 15 11 9 10 9 8 7 7 6
18 29 22 19 18 22 36 47 73 88 92 100 102 103 106 101 99 88 80 69 57 52 53 44 38 31 28 23 18 13 12 10 8 7 6 5 3 2
27 27 24 28 26 22 53 60 75 86 89 101 95 98 98 95 85 74 71 71 62 44 47 42 32 29 24 18 16 15 12 8 6 6 5 4 3 4
33 35 32 31 28 44 65 75 82 76 67 77 83 78 85 80 76 73 70 66 64 57 44 43 33 26 25 22 21 18 12 8 7 7 7 5 4 7
29 29 33 34 32 61 70 81 69 55 56 59 61 67 64 65 63 64 60 55 52 49 40 40 36 28 24 25 20 14 10 10 10 10 8 7 8 11
28 25 34 36 42 63 70 66 56 61 54 47 52 60 61 54 56 58 53 54 52 44 37 19 30 24 23 25 21 16 15 14 14 15 12 11 13 15
29 25 35 42 44 54 63 68 58 53 57 56 55 54 57 59 48 38 40 44 47 39 33 23 28 26 26 29 26 23 21 21 21 19 16 14 15 19
33 39 43 38 43 56 55 58 54 67 63 66 58 53 58 55 39 33 26 22 34 18 28 27 26 29 21 19 23 20 23 24 22 19 15 12 13 18
32 36 44 39 40 48 50 49 51 59 57 57 45 52 60 56 38 36 32 25 24 12 7 12 14 23 23 22 21 21 13 18 22 19 19 19 19 23
44 42 42 41 41 39 47 40 51 52 63 66 51 46 56 51 38 41 41 33 26 24 23 27 25 19 26 27 25 22 24 22 21 22 23 21 24 29
53 50 48 39 31 37 50 52 53 56 65 54 50 46 46 49 48 45 42 39 38 32 35 41 42 37 37 33 33 33 33 29 25 23 23 22 29 32
54 49 43 39 42 45 52 55 55 57 51 44 45 47 46 47 49 46 39 39 41 35 37 46 52 49 42 43 47 40 43 43 34 26 23 26 34 34
40 42 43 44 52 58 58 57 55 49 43 43 43 46 49 50 48 46 45 43 41 45 46 48 53 56 51 46 51 43 40 37 33 31 30 26 26 36
40 41 42 48 57 59 56 51 46 44 44 43 41 43 46 46 45 46 46 48 48 49 48 48 50 52 53 56 52 40 43 42 41 35 29 28 38 37
44 47 44 45 50 56 53 48 40 45 51 53 51 47 46 44 46 53 56 54 51 50 48 48 52 48 42 41 51 53 48 48 44 38 27 43 37 35
48 48 45 43 42 44 49 49 42 43 50 48 53 58 55 55 53 54 52 50 51 51 55 59 53 46 45 44 43 45 50 52 44 38 32 43 37 34
54 55 54 52 51 54 53 51 48 50 52 53 63 54 53 57 57 53 55 61 64 63 64 60 57 60 63 64 59 48 49 52 52 50 47 39 32 24
59 61 61 59 49 59 54 56 60 64 64 63 65 66 66 71 71 67 63 65 70 67 67 69 70 68 69 69 63 54 52 48 46 44 47 36 33 26
Wind_Direction_500mb
237 214 193 196 214 221 212 200 188 163 165 177 153 183 184 188 177 184 177 180 173 179 177 166 161 160 162 148 152 174 171 158 161 151 173 189 242 270
160 152 175 182 202 215 205 207 207 205 165 179 168 170 172 179 179 170 174 174 170 163 152 151 156 152 143 157 165 169 171 174 172 178 219 240 261 281
214 168 162 167 188 177 187 227 198 200 180 159 167 165 166 167 165 166 168 161 154 151 151 151 147 152 152 168 172 192 195 185 197 207 236 261 275 278
151 160 148 165 123 90 180 183 197 179 163 150 155 153 169 168 145 146 153 146 147 151 153 151 155 165 154 184 172 160 170 181 200 232 253 263 262 280
150 157 162 156 127 131 146 161 155 151 152 147 149 154 149 149 144 139 140 142 141 142 149 148 145 151 155 149 156 161 172 194 232 247 231 254 276 290
143 150 151 158 152 149 154 154 157 151 145 142 137 133 138 143 142 142 139 137 141 145 147 144 151 154 155 162 171 176 190 207 200 225 248 269 282 281
112 143 140 140 155 167 169 152 144 130 127 133 134 138 142 143 142 147 145 147 145 150 149 153 159 162 169 174 179 181 177 188 222 246 264 269 266 274
118 128 120 118 129 128 160 150 144 134 135 132 134 133 140 148 149 151 148 148 145 158 158 159 172 176 178 171 175 178 192 213 235 249 237 220 237 325
118 122 119 117 127 136 150 151 151 141 139 137 143 150 152 155 156 158 157 158 152 159 171 162 169 185 178 181 186 194 209 222 230 219 217 230 276 313
118 123 123 128 139 150 150 153 149 147 148 152 147 150 154 161 164 162 152 154 155 158 176 163 168 181 186 189 195 215 228 231 223 220 230 246 278 304
127 136 135 133 142 155 155 152 150 156 148 148 143 148 148 154 152 152 159 160 157 161 177 197 175 187 196 198 210 227 236 239 234 231 236 257 282 302
126 133 143 145 148 158 161 160 157 157 146 148 145 149 149 149 152 158 160 167 160 164 183 188 194 192 198 210 217 230 235 237 240 239 240 253 275 288
142 140 146 151 158 165 158 161 157 153 148 142 148 153 157 154 152 163 167 173 173 162 185 181 186 193 199 207 218 232 237 240 242 244 246 262 285 294
151 144 150 149 151 166 177 172 167 165 168 163 153 161 167 167 162 166 176 185 191 190 203 219 215 217 225 229 221 231 243 237 245 248 250 261 284 300
151 140 138 139 145 160 170 178 166 173 170 173 178 171 175 173 175 180 189 190 216 224 236 250 252 241 249 255 255 257 260 263 257 252 250 269 295 299
142 139 136 138 145 152 168 173 173 170 171 174 178 179 179 184 193 196 200 205 218 232 231 232 238 239 242 251 256 265 268 261 273 251 255 271 281 288
145 149 148 150 151 151 154 172 178 173 182 186 186 184 190 197 203 205 212 225 229 232 233 232 232 239 244 247 242 241 250 249 249 248 248 265 280 281
160 161 161 162 160 157 154 157 167 180 184 187 193 199 202 203 207 213 221 232 242 239 237 243 240 236 244 240 240 250 242 243 239 230 240 268 289 296
171 166 166 169 171 169 170 175 183 191 188 199 199 205 211 214 220 228 237 244 246 240 240 243 246 247 243 238 237 234 238 231 231 234 248 271 282 285
182 176 173 176 180 183 184 189 194 202 212 215 220 222 229 233 231 243 245 239 244 246 247 253 256 254 256 266 254 243 229 237 241 247 257 305 275 280
189 189 189 192 195 200 204 203 201 207 217 214 219 227 233 233 240 244 246 249 254 253 256 259 267 268 260 252 248 244 239 235 234 240 270 294 273 277
199 197 194 201 205 215 223 226 224 224 224 223 225 230 232 238 245 252 248 247 250 256 266 267 261 256 249 254 254 243 241 237 239 245 272 267 280 274
214 212 211 210 214 221 226 228 233 234 233 237 236 235 240 244 247 250 252 253 252 251 251 250 251 248 247 250 249 243 239 223 231 254 296 259 276 277
Wind_Speed_850mb
4 11 15 22 21 23 27 39 41 33 30 29 23 21 38 46 52 53 55 59 58 73 81 73 74 64 51 48 39 31 27 22 18 14 8 4 4 7
7 10 12 16 21 23 28 37 42 41 33 39 36 36 36 63 58 59 71 74 85 80 76 69 62 55 48 39 35 31 21 23 14 11 11 9 12 14
6 4 9 10 14 16 19 25 42 36 39 44 38 36 57 81 82 75 83 86 85 81 72 64 62 55 48 41 34 26 26 21 15 12 11 14 16 17
7 8 12 14 11 12 22 37 32 40 44 54 48 45 46 63 87 98 92 92 83 70 61 55 49 42 36 27 27 31 23 16 12 11 15 14 10 10
7 11 15 19 19 21 25 30 35 39 31 54 66 65 80 93 95 93 92 81 73 68 57 47 40 35 35 31 25 19 15 12 11 12 9 9 9 10
11 17 23 21 18 23 35 41 36 46 67 84 96 97 104 106 103 94 79 77 69 58 48 47 44 35 28 23 20 15 11 9 10 9 8 7 7 6
18 29 22 19 18 22 36 47 73 88 92 100 102 103 106 101 99 88 80 69 57 52 53 44 38 31 28 23 18 13 12 10 8 7 6 5 3 2
27 27 24 28 26 22 53 60 75 86 89 101 95 98 98 95 85 74 71 71 62 44 47 42 32 29 24 18 16 15 12 8 6 6 5 4 3 4
33 35 32 31 28 44 65 75 82 76 67 77 83 78 85 80 76 73 70 66 64 57 44 43 33 26 25 22 21 18 12 8 7 7 7 5 4 7
29 29 33 34 32 61 70 81 69 55 56 59 61 67 64 65 63 64 60 55 52 49 40 40 36 28 24 25 20 14 10 10 10 10 8 7 8 11
28 25 34 36 42 63 70 66 56 61 54 47 52 60 61 54 56 58 53 54 52 44 37 19 30 24 23 25 21 16 15 14 14 15 12 11 13 15
29 25 35 42 44 54 63 68 58 53 57 56 55 54 57 59 48 38 40 44 47 39 33 23 28 26 26 29 26 23 21 21 21 19 16 14 15 19
33 39 43 38 43 56 55 58 54 67 63 66 58 53 58 55 39 33 26 22 34 18 28 27 26 29 21 19 23 20 23 24 22 19 15 12 13 18
32 36 44 39 40 48 50 49 51 59 57 57 45 52 60 56 38 36 32 25 24 12 7 12 14 23 23 22 21 21 13 18 22 19 19 19 19 23
44 42 42 41 41 39 47 40 51 52 63 66 51 46 56 51 38 41 41 33 26 24 23 27 25 19 26 27 25 22 24 22 21 22 23 21 24 29
53 50 48 39 31 37 50 52 53 56 65 54 50 46 46 49 48 45 42 39 38 32 35 41 42 37 37 33 33 33 33 29 25 23 23 22 29 32
54 49 43 39 42 45 52 55 55 57 51 44 45 47 46 47 49 46 39 39 41 35 37 46 52 49 42 43 47 40 43 43 34 26 23 26 34 34
40 42 43 44 52 58 58 57 55 49 43 43 43 46 49 50 48 46 45 43 41 45 46 48 53 56 51 46 51 43 40 37 33 31 30 26 26 36
40 41 42 48 57 59 56 51 46 44 44 43 41 43 46 46 45 46 46 48 48 49 48 48 50 52 53 56 52 40 43 42 41 35 29 28 38 37
44 47 44 45 50 56 53 48 40 45 51 53 51 47 46 44 46 53 56 54 51 50 48 48 52 48 42 41 51 53 48 48 44 38 27 43 37 35
48 48 45 43 42 44 49 49 42 43 50 48 53 58 55 55 53 54 52 50 51 51 55 59 53 46 45 44 43 45 50 52 44 38 32 43 37 34
54 55 54 52 51 54 53 51 48 50 52 53 63 54 53 57 57 53 55 61 64 63 64 60 57 60 63 64 59 48 49 52 52 50 47 39 32 24
59 61 61 59 49 59 54 56 60 64 64 63 65 66 66 71 71 67 63 65 70 67 67 69 70 68 69 69 63 54 52 48 46 44 47 36 33 26
Wind_Direction_850mb
237 214 193 196 214 221 212 200 188 163 165 177 153 183 184 188 177 184 177 180 173 179 177 166 161 160 162 148 152 174 171 158 161 151 173 189 242 270
160 152 175 182 202 215 205 207 207 205 165 179 168 170 172 179 179 170 174 174 170 163 152 151 156 152 143 157 165 169 171 174 172 178 219 240 261 281
214 168 162 167 188 177 187 227 198 200 180 159 167 165 166 167 165 166 168 161 154 151 151 151 147 152 152 168 172 192 195 185 197 207 236 261 275 278
151 160 148 165 123 90 180 183 197 179 163 150 155 153 169 168 145 146 153 146 147 151 153 151 155 165 154 184 172 160 170 181 200 232 253 263 262 280
150 157 162 156 127 131 146 161 155 151 152 147 149 154 149 149 144 139 140 142 141 142 149 148 145 151 155 149 156 161 172 194 232 247 231 254 276 290
143 150 151 158 152 149 154 154 157 151 145 142 137 133 138 143 142 142 139 137 141 145 147 144 151 154 155 162 171 176 190 207 200 225 248 269 282 281
112 143 140 140 155 167 169 152 144 130 127 133 134 138 142 143 142 147 145 147 145 150 149 153 159 162 169 174 179 181 177 188 222 246 264 269 266 274
118 128 120 118 129 128 160 150 144 134 135 132 134 133 140 148 149 151 148 148 145 158 158 159 172 176 178 171 175 178 192 213 235 249 237 220 237 325
118 122 119 117 127 136 150 151 151 141 139 137 143 150 152 155 156 158 157 158 152 159 171 162 169 185 178 181 186 194 209 222 230 219 217 230 276 313
118 123 123 128 139 150 150 153 149 147 148 152 147 150 154 161 164 162 152 154 155 158 176 163 168 181 186 189 195 215 228 231 223 220 230 246 278 304
127 136 135 133 142 155 155 152 150 156 148 148 143 148 148 154 152 152 159 160 157 161 177 197 175 187 196 198 210 227 236 239 234 231 236 257 282 302
126 133 143 145 148 158 161 160 157 157 146 148 145 149 149 149 152 158 160 167 160 164 183 188 194 192 198 210 217 230 235 237 240 239 240 253 275 288
142 140 146 151 158 165 158 161 157 153 148 142 148 153 157 154 152 163 167 173 173 162 185 181 186 193 199 207 218 232 237 240 242 244 246 262 285 294
151 144 150 149 151 166 177 172 167 165 168 163 153 161 167 167 162 166 176 185 191 190 203 219 215 217 225 229 221 231 243 237 245 248 250 261 284 300
151 140 138 139 145 160 170 178 166 173 170 173 178 171 175 173 175 180 189 190 216 224 236 250 252 241 249 255 255 257 260 263 257 252 250 269 295 299
142 139 136 138 145 152 168 173 173 170 171 174 178 179 179 184 193 196 200 205 218 232 231 232 238 239 242 251 256 265 268 261 273 251 255 271 281 288
145 149 148 150 151 151 154 172 178 173 182 186 186 184 190 197 203 205 212 225 229 232 233 232 232 239 244 247 242 241 250 249 249 248 248 265 280 281
160 161 161 162 160 157 154 157 167 180 184 187 193 199 202 203 207 213 221 232 242 239 237 243 240 236 244 240 240 250 242 243 239 230 240 268 289 296
171 166 166 169 171 169 170 175 183 191 188 199 199 205 211 214 220 228 237 244 246 240 240 243 246 247 243 238 237 234 238 231 231 234 248 271 282 285
182 176 173 176 180 183 184 189 194 202 212 215 220 222 229 233 231 243 245 239 244 246 247 253 256 254 256 266 254 243 229 237 241 247 257 305 275 280
189 189 189 192 195 200 204 203 201 207 217 214 219 227 233 233 240 244 246 249 254 253 256 259 267 268 260 252 248 244 239 235 234 240 270 294 273 277
199 197 194 201 205 215 223 226 224 224 224 223 225 230 232 238 245 252 248 247 250 256 266 267 261 256 249 254 254 243 241 237 239 245 272 267 280 274
214 212 211 210 214 221 226 228 233 234 233 237 236 235 240 244 247 250 252 253 252 251 251 250 251 248 247 250 249 243 239 223 231 254 296 259 276 277